sat.trackr.live / text

‹ back to catalog

STARLINK-30494

NORAD 57970 · 2023-151G

PAYLOAD ACTIVE UNKNOWN

§ Identity

Operator
Country
US
Launch date
2023-09-30
Launch site
AFETR
Launch vehicle
Mass (kg)
RCS (m²)

Purposes: comms

External: N2YO · Heavens-Above · Gunter

§ Orbital elements

Epoch: 2026-09-19T03:52:51.645504Z

Period
94.27 min
Inclination
43.0052°
Eccentricity
0.0001823
Mean motion
15.27567053 rev/d
Perigee alt
481.8 km
Apogee alt
484.3 km
Semi-major
6,861.2 km
B*
7.8798e-5
RAAN
177.9240°
Arg perigee
242.1511°
Mean anomaly
117.9156°
Rev number
16,704

§ Raw data

STARLINK-304941 57970U 23151G   26262.16170886  .00001906  00000+0  78798-4 0  99932 57970  43.0052 177.9240 0001823 242.1511 117.9156 15.27567053167043

JSON: /api/v1/satellites/57970 · /tle

For live sub-satellite position, see the globe view (requires WebGL).

§ Visibility from observer

Set your observer location to see the next 7 days of passes ≥ 10°. The values pass through the URL so the page stays shareable.

No JS? Fill the form by hand. The geolocation button needs JavaScript.